When you browse on this site, cookies collect data to enhance your experience and personalize the content and advertising you see.
Visit our Privacy Policy to learn more. By continuing to use the site, you agree to this use of cookies and data.
  • In Österreich
  • Länderverzeichnis
  • Für 7 Tage
  • Wassertemperatur
  • Wetterkarte
  • News
  • Widgets
  • user-avatar
    Anmelden

    Stündliche Wetter Sitnica

    Heute, 17 September, Dienstag

    Zeit Temperatur Niederschläge Wind Luftdruck Luftfeuchtigkeit
    00:00 +10°C° 0 mm 4 m/S 745 mmHg 76%
    01:00 +8°C° 0 mm 4 m/S 745 mmHg 79%
    02:00 +8°C° 0 mm 4 m/S 745 mmHg 83%
    03:00 +7°C° 0 mm 4 m/S 745 mmHg 82%
    04:00 +7°C° 0 mm 4 m/S 745 mmHg 82%
    05:00 +7°C° 0 mm 4 m/S 745 mmHg 82%
    06:00 +7°C° 0 mm 5 m/S 745 mmHg 79%
    07:00 +8°C° 0 mm 5 m/S 745 mmHg 77%
    08:00 +9°C° 0 mm 6 m/S 745 mmHg 74%
    09:00 +10°C° 0 mm 6 m/S 745 mmHg 68%
    10:00 +13°C° 0 mm 6 m/S 745 mmHg 62%
    11:00 +14°C° 0 mm 6 m/S 745 mmHg 56%
    12:00 +15°C° 0 mm 6 m/S 744 mmHg 54%
    13:00 +15°C° 0 mm 6 m/S 744 mmHg 52%
    14:00 +16°C° 0 mm 6 m/S 743 mmHg 50%
    15:00 +15°C° 0.2 mm 5 m/S 743 mmHg 54%
    16:00 +14°C° 0.2 mm 4 m/S 742 mmHg 59%
    17:00 +14°C° 0.2 mm 3 m/S 742 mmHg 63%
    18:00 +13°C° 0.3 mm 4 m/S 742 mmHg 67%
    19:00 +12°C° 0.3 mm 4 m/S 741 mmHg 70%
    20:00 +11°C° 0.3 mm 4 m/S 741 mmHg 73%
    21:00 +10°C° 0.1 mm 4 m/S 741 mmHg 76%
    22:00 +10°C° 0.1 mm 4 m/S 740 mmHg 78%
    23:00 +8°C° 0.1 mm 4 m/S 740 mmHg 81%

    Morgen, 18 September, Mittwoch

    Zeit Temperatur Niederschläge Wind Luftdruck Luftfeuchtigkeit
    00:00 +8°C° 0.8 mm 4 m/S 739 mmHg 84%
    01:00 +7°C° 0.8 mm 4 m/S 739 mmHg 88%
    02:00 +7°C° 0.8 mm 4 m/S 739 mmHg 91%
    03:00 +7°C° 1.1 mm 5 m/S 739 mmHg 90%
    04:00 +6°C° 1.1 mm 5 m/S 739 mmHg 90%
    05:00 +6°C° 1.1 mm 5 m/S 738 mmHg 90%
    06:00 +5°C° 0.2 mm 6 m/S 739 mmHg 88%
    07:00 +5°C° 0.2 mm 6 m/S 739 mmHg 87%
    08:00 +5°C° 0.2 mm 7 m/S 740 mmHg 86%
    09:00 +5°C° 0.3 mm 7 m/S 740 mmHg 84%
    10:00 +6°C° 0.3 mm 7 m/S 740 mmHg 82%
    11:00 +7°C° 0.3 mm 6 m/S 741 mmHg 80%
    12:00 +8°C° 0.2 mm 7 m/S 741 mmHg 78%
    13:00 +8°C° 0.2 mm 7 m/S 742 mmHg 76%
    14:00 +9°C° 0.2 mm 7 m/S 742 mmHg 75%
    15:00 +9°C° 0.1 mm 7 m/S 743 mmHg 73%
    16:00 +10°C° 0.1 mm 6 m/S 743 mmHg 72%
    17:00 +10°C° 0.1 mm 6 m/S 744 mmHg 70%
    18:00 +10°C° 0.1 mm 5 m/S 745 mmHg 74%
    19:00 +9°C° 0.1 mm 5 m/S 745 mmHg 78%
    20:00 +8°C° 0.1 mm 5 m/S 746 mmHg 82%
    21:00 +8°C° 0 mm 5 m/S 746 mmHg 84%
    22:00 +7°C° 0 mm 5 m/S 747 mmHg 86%
    23:00 +7°C° 0 mm 5 m/S 747 mmHg 88%

    übermorgen, 19 September, Donnerstag

    Zeit Temperatur Niederschläge Wind Luftdruck Luftfeuchtigkeit
    00:00 +7°C° 0 mm 5 m/S 748 mmHg 89%
    01:00 +6°C° 0 mm 5 m/S 748 mmHg 91%
    02:00 +6°C° 0 mm 5 m/S 748 mmHg 92%
    03:00 +6°C° 0 mm 5 m/S 749 mmHg 91%
    04:00 +6°C° 0 mm 5 m/S 749 mmHg 90%
    05:00 +6°C° 0 mm 5 m/S 749 mmHg 90%
    06:00 +6°C° 0 mm 5 m/S 749 mmHg 88%
    07:00 +6°C° 0 mm 5 m/S 750 mmHg 86%
    08:00 +6°C° 0 mm 4 m/S 750 mmHg 85%
    09:00 +8°C° 0.1 mm 5 m/S 750 mmHg 80%
    10:00 +9°C° 0.1 mm 5 m/S 750 mmHg 75%
    11:00 +10°C° 0.1 mm 5 m/S 751 mmHg 71%
    12:00 +10°C° 0.4 mm 5 m/S 750 mmHg 71%
    13:00 +10°C° 0.4 mm 5 m/S 750 mmHg 71%
    14:00 +12°C° 0.4 mm 4 m/S 750 mmHg 71%
    15:00 +11°C° 0.2 mm 4 m/S 750 mmHg 72%
    16:00 +11°C° 0.2 mm 4 m/S 750 mmHg 73%
    17:00 +11°C° 0.2 mm 3 m/S 750 mmHg 74%
    18:00 +10°C° 0.2 mm 3 m/S 751 mmHg 79%
    19:00 +9°C° 0.2 mm 3 m/S 751 mmHg 85%
    20:00 +8°C° 0.2 mm 3 m/S 751 mmHg 90%
    21:00 +7°C° 0.1 mm 3 m/S 751 mmHg 91%
    22:00 +7°C° 0.1 mm 3 m/S 751 mmHg 91%
    23:00 +7°C° 0.1 mm 3 m/S 751 mmHg 92%

    20 September, Freitag

    Zeit Temperatur Niederschläge Wind Luftdruck Luftfeuchtigkeit
    00:00 +7°C° 0 mm 3 m/S 751 mmHg 92%
    01:00 +7°C° 0 mm 3 m/S 751 mmHg 92%
    02:00 +6°C° 0 mm 4 m/S 751 mmHg 91%
    03:00 +5°C° 0 mm 4 m/S 751 mmHg 93%
    04:00 +4°C° 0 mm 4 m/S 751 mmHg 94%
    05:00 +4°C° 0 mm 4 m/S 751 mmHg 95%
    06:00 +4°C° 0 mm 4 m/S 751 mmHg 92%
    07:00 +5°C° 0 mm 5 m/S 751 mmHg 89%
    08:00 +5°C° 0 mm 5 m/S 752 mmHg 85%
    09:00 +6°C° 0.1 mm 5 m/S 752 mmHg 76%
    10:00 +7°C° 0.1 mm 6 m/S 752 mmHg 68%
    11:00 +9°C° 0.1 mm 6 m/S 752 mmHg 59%
    12:00 +9°C° 0.2 mm 6 m/S 752 mmHg 58%
    13:00 +9°C° 0.2 mm 7 m/S 752 mmHg 56%
    14:00 +10°C° 0.2 mm 7 m/S 752 mmHg 55%
    15:00 +9°C° 0.2 mm 6 m/S 752 mmHg 59%
    16:00 +9°C° 0.2 mm 5 m/S 752 mmHg 64%
    17:00 +8°C° 0.2 mm 4 m/S 752 mmHg 68%
    18:00 +8°C° 0 mm 3 m/S 753 mmHg 73%
    19:00 +5°C° 0 mm 3 m/S 753 mmHg 79%
    20:00 +4°C° 0 mm 3 m/S 754 mmHg 84%
    21:00 +4°C° 0 mm 3 m/S 754 mmHg 87%
    22:00 +3°C° 0 mm 3 m/S 754 mmHg 89%
    23:00 +3°C° 0 mm 3 m/S 755 mmHg 91%

    21 September, Samstag

    Zeit Temperatur Niederschläge Wind Luftdruck Luftfeuchtigkeit
    00:00 +3°C° 0 mm 3 m/S 755 mmHg 92%
    01:00 +2°C° 0 mm 3 m/S 756 mmHg 93%
    02:00 +3°C° 0 mm 2 m/S 756 mmHg 94%
    03:00 +3°C° 0 mm 2 m/S 756 mmHg 95%
    04:00 +1°C° 0 mm 3 m/S 756 mmHg 96%
    05:00 +1°C° 0 mm 3 m/S 757 mmHg 96%
    06:00 +2°C° 0 mm 3 m/S 757 mmHg 92%
    07:00 +3°C° 0 mm 3 m/S 757 mmHg 88%
    08:00 +4°C° 0 mm 3 m/S 757 mmHg 84%
    09:00 +5°C° 0 mm 3 m/S 758 mmHg 73%
    10:00 +8°C° 0 mm 3 m/S 758 mmHg 62%
    11:00 +10°C° 0 mm 3 m/S 758 mmHg 52%
    12:00 +11°C° 0 mm 3 m/S 758 mmHg 49%
    13:00 +11°C° 0 mm 4 m/S 757 mmHg 45%
    14:00 +12°C° 0 mm 4 m/S 757 mmHg 42%
    15:00 +11°C° 0 mm 3 m/S 757 mmHg 47%
    16:00 +11°C° 0 mm 3 m/S 757 mmHg 51%
    17:00 +11°C° 0 mm 3 m/S 757 mmHg 55%
    18:00 +10°C° 0 mm 3 m/S 757 mmHg 57%
    19:00 +10°C° 0 mm 3 m/S 756 mmHg 59%
    20:00 +9°C° 0 mm 3 m/S 756 mmHg 61%
    21:00 +8°C° 0 mm 4 m/S 756 mmHg 63%
    22:00 +7°C° 0 mm 4 m/S 756 mmHg 64%
    23:00 +7°C° 0 mm 4 m/S 756 mmHg 66%

    22 September, Sonntag

    Zeit Temperatur Niederschläge Wind Luftdruck Luftfeuchtigkeit
    00:00 +7°C° 0 mm 4 m/S 756 mmHg 66%
    01:00 +7°C° 0 mm 4 m/S 756 mmHg 66%
    02:00 +7°C° 0 mm 5 m/S 756 mmHg 67%
    03:00 +6°C° 0 mm 5 m/S 755 mmHg 69%
    04:00 +6°C° 0 mm 4 m/S 755 mmHg 71%
    05:00 +6°C° 0 mm 4 m/S 755 mmHg 73%
    06:00 +7°C° 0 mm 4 m/S 755 mmHg 72%
    07:00 +8°C° 0 mm 5 m/S 755 mmHg 72%
    08:00 +8°C° 0 mm 5 m/S 755 mmHg 71%
    09:00 +12°C° 0 mm 5 m/S 755 mmHg 65%
    10:00 +14°C° 0 mm 5 m/S 755 mmHg 60%
    11:00 +16°C° 0 mm 6 m/S 755 mmHg 54%
    12:00 +16°C° 0 mm 5 m/S 754 mmHg 52%
    13:00 +17°C° 0 mm 5 m/S 754 mmHg 50%
    14:00 +19°C° 0 mm 5 m/S 753 mmHg 48%
    15:00 +17°C° 0 mm 5 m/S 753 mmHg 52%
    16:00 +18°C° 0 mm 4 m/S 753 mmHg 55%
    17:00 +17°C° 0 mm 3 m/S 752 mmHg 59%
    18:00 +14°C° 0 mm 3 m/S 752 mmHg 64%
    19:00 +14°C° 0 mm 2 m/S 752 mmHg 69%
    20:00 +12°C° 0 mm 2 m/S 752 mmHg 73%
    21:00 +10°C° 0 mm 2 m/S 752 mmHg 74%
    22:00 +10°C° 0 mm 2 m/S 751 mmHg 76%
    23:00 +10°C° 0 mm 1 m/S 751 mmHg 77%
    Mehr zeigen